Showing default

FLOCK 4Q 2, 58320

Orbit data source: Space-Track

FLOCK 4Q 2, 58320 is a payload satellite owned by Planet (US) in SSO that was launched on Sat, 11 Nov 2023 UTC via an FALCON 9 launch vehicle from the Air Force Western Test Range (AFWTR). Payload-class satellites include a variety of spacecraft equipped with specific instruments for various scientific and technological missions. These include communications satellites like Starlink; space stations such as the ISS; scientific satellites like the Hubble; Earth observation satellites from companies like Planet Labs, Umbra, and HawkEye 360; GPS; miniature CubeSats for education and research; and military/defense satellites.

Loading next visibility...
Identifier
58320, 2023-174BS
Orbit
SSO
Country
Flag of USUS
Related business
Manufacturer
Planet
Mission
Operational Commercial Imaging
Bus & Motor
CUBESAT 3U, Unknown motor
Mass
5.7 kg wet, 5.7 kg dry
Launch date (UTC)
2023-11-11 (2 years ago)
Launch vehicle
FALCON 9
Launch site
Air Force Western Test Range (AFWTR)
Object type
Payload
Rocket body
Debris
Shape & HBR
Box + 2 Pan, 1.0 m
Radar Cross Section
0.072 m², Medium (>0.1 m² and < 1m²)

Expand to show TLE details & history
Last TLE update: 6 hours ago

TLE from 6 hours ago
0 FLOCK 4Q 2
1 58320U 23174BS  25289.21813858  .00026159  00000-0  71161-3 0  9999
2 58320  97.4052   8.7916 0006771 298.8411  61.2154 15.37490678107964
Epoch: 2025-10-16T05:14Z
TLE epoch observation values (Epoch: 2025-10-16T05:14:07.173Z)
Latitude
0.00003°
Longitude
-94.71931°
Altitude
454.421 km
Speed
7.641 km/s
True Right ascension
00h 35m 09s
True Declination
0° 00' 00"
Sunlit
Object was in full shadow at epoch
Visualization orbit readout
Latitude
Unknown
Longitude
Unknown
Altitude
Unknown
Speed
Unknown
Apparent Right ascension
Unknown
Apparent Declination
Unknown
Sunlit
N/A
Visualization observer readout
Local Sidereal Time
05:40:30
Azimuth
Unknown
Elevation
Unknown
Doppler factor
Unknown
Orbital elements
Apogee altitude
455.099 km
Perigee altitude
445.851 km
Semi-major axis
6,828.612 km
Eccentricity
0.00068
Inclination
97.4052°
RAAN
8.7916°
Arg. of periapsis
298.8411°
True anomaly
61.28343°
Mean anomaly
61.2154°
Eccentric anomaly
61.24941°
Mean motion
3.84631 °/min
Orbital period
93.6 mins
BSTAR
0.00071161
Loading maneuver chart data...
Computing Atmospheric mass density...

Documentation

Showing up to 5 results
|